Time,TemperatureF,DewpointF,PressureIn,WindDirection,WindDirectionDegrees,WindSpeedMPH,WindSpeedGustMPH,Humidity,HourlyPrecipIn,Conditions,Clouds,dailyrainin,SoftwareType,DateUTC
2013-08-21 00:00:00,95.7,47.0,29.74,South,183,2.0,-999.0,19,-99.99,,,0.00,weatherlink.com 1.10,2013-08-21 07:00:00,
2013-08-21 00:15:00,95.3,62.0,29.74,SSE,168,10.0,-999.0,33,-99.99,,,0.00,weatherlink.com 1.10,2013-08-21 07:15:00,
2013-08-21 00:30:00,95.5,61.0,29.74,South,190,5.0,-999.0,32,-99.99,,,0.00,weatherlink.com 1.10,2013-08-21 07:30:00,
2013-08-21 00:45:00,95.1,60.0,29.75,South,183,9.0,-999.0,31,-99.99,,,0.00,weatherlink.com 1.10,2013-08-21 07:45:00,
2013-08-21 01:00:00,94.7,61.0,29.73,South,185,1.0,-999.0,32,-99.99,,,0.00,weatherlink.com 1.10,2013-08-21 08:00:00,
2013-08-21 01:15:00,94.8,61.0,29.74,SE,126,2.0,-999.0,32,-99.99,,,0.00,weatherlink.com 1.10,2013-08-21 08:15:00,
2013-08-21 01:30:00,93.9,58.0,29.74,SE,136,4.0,-999.0,30,-99.99,,,0.00,weatherlink.com 1.10,2013-08-21 08:30:00,
2013-08-21 01:45:00,94.2,54.0,29.74,SSE,155,7.0,-999.0,26,-99.99,,,0.00,weatherlink.com 1.10,2013-08-21 08:45:00,
2013-08-21 02:00:00,93.2,57.0,29.75,SSE,163,5.0,-999.0,29,-99.99,,,0.00,weatherlink.com 1.10,2013-08-21 09:00:00,
2013-08-21 02:15:00,93.0,56.0,29.75,SSE,156,9.0,-999.0,29,-99.99,,,0.00,weatherlink.com 1.10,2013-08-21 09:15:00,
2013-08-21 02:30:00,93.0,55.0,29.75,South,171,7.0,-999.0,28,-99.99,,,0.00,weatherlink.com 1.10,2013-08-21 09:30:00,
2013-08-21 02:45:00,93.0,53.0,29.75,South,175,2.0,-999.0,26,-99.99,,,0.00,weatherlink.com 1.10,2013-08-21 09:45:00,
2013-08-21 03:00:00,92.6,56.0,29.75,South,169,6.0,-999.0,29,-99.99,,,0.00,weatherlink.com 1.10,2013-08-21 10:00:00,
2013-08-21 03:15:00,91.8,57.0,29.75,SSE,157,8.0,-999.0,31,-99.99,,,0.00,weatherlink.com 1.10,2013-08-21 10:15:00,
2013-08-21 03:30:00,90.9,57.0,29.75,South,184,8.0,-999.0,32,-99.99,,,0.00,weatherlink.com 1.10,2013-08-21 10:30:00,
2013-08-21 03:45:00,90.8,56.0,29.75,South,176,4.0,-999.0,31,-99.99,,,0.00,weatherlink.com 1.10,2013-08-21 10:45:00,
2013-08-21 04:00:00,90.5,56.0,29.76,South,174,2.0,-999.0,31,-99.99,,,0.00,weatherlink.com 1.10,2013-08-21 11:00:00,
2013-08-21 04:15:00,90.5,55.0,29.77,SSE,163,5.0,-999.0,30,-99.99,,,0.00,weatherlink.com 1.10,2013-08-21 11:15:00,
2013-08-21 04:30:00,90.6,56.0,29.77,South,185,1.0,-999.0,31,-99.99,,,0.00,weatherlink.com 1.10,2013-08-21 11:30:00,
2013-08-21 04:45:00,90.1,56.0,29.77,SSE,167,0.0,-999.0,31,-99.99,,,0.00,weatherlink.com 1.10,2013-08-21 11:45:00,
2013-08-21 05:00:00,89.1,56.0,29.77,SSE,167,0.0,-999.0,32,-99.99,,,0.00,weatherlink.com 1.10,2013-08-21 12:00:00,
2013-08-21 05:15:00,88.4,56.0,29.77,SSE,167,0.0,-999.0,33,-99.99,,,0.00,weatherlink.com 1.10,2013-08-21 12:15:00,
2013-08-21 05:30:00,87.6,56.0,29.77,SSE,167,0.0,-999.0,34,-99.99,,,0.00,weatherlink.com 1.10,2013-08-21 12:30:00,
2013-08-21 05:45:00,87.0,55.0,29.77,SSE,167,1.0,-999.0,34,-99.99,,,0.00,weatherlink.com 1.10,2013-08-21 12:45:00,
2013-08-21 06:00:00,86.8,56.0,29.78,SSE,167,1.0,-999.0,35,-99.99,,,0.00,weatherlink.com 1.10,2013-08-21 13:00:00,
2013-08-21 06:15:00,86.6,56.0,29.78,SSE,167,0.0,-999.0,35,-99.99,,,0.00,weatherlink.com 1.10,2013-08-21 13:15:00,
2013-08-21 06:31:00,86.6,56.0,29.79,SSE,167,0.0,-999.0,35,-99.99,,,0.00,weatherlink.com 1.10,2013-08-21 13:31:00,
2013-08-21 06:46:00,87.0,56.0,29.79,SSE,167,0.0,-999.0,35,-99.99,,,0.00,weatherlink.com 1.10,2013-08-21 13:46:00,
2013-08-21 07:01:00,87.4,57.0,29.79,SSE,167,1.0,-999.0,35,-99.99,,,0.00,weatherlink.com 1.10,2013-08-21 14:01:00,
2013-08-21 07:16:00,88.2,57.0,29.80,SSE,163,0.0,-999.0,35,-99.99,,,0.00,weatherlink.com 1.10,2013-08-21 14:16:00,
2013-08-21 07:31:00,89.9,56.0,29.80,SSE,157,1.0,-999.0,32,-99.99,,,0.00,weatherlink.com 1.10,2013-08-21 14:31:00,
2013-08-21 07:46:00,91.1,56.0,29.81,SSE,156,0.0,-999.0,30,-99.99,,,0.00,weatherlink.com 1.10,2013-08-21 14:46:00,
2013-08-21 08:01:00,92.1,57.0,29.81,SSE,155,2.0,-999.0,30,-99.99,,,0.00,weatherlink.com 1.10,2013-08-21 15:01:00,
2013-08-21 08:16:00,93.8,56.0,29.81,SE,146,0.0,-999.0,28,-99.99,,,0.00,weatherlink.com 1.10,2013-08-21 15:16:00,
2013-08-21 08:31:00,94.2,55.0,29.82,SE,140,4.0,-999.0,27,-99.99,,,0.00,weatherlink.com 1.10,2013-08-21 15:31:00,
2013-08-21 08:46:00,94.5,56.0,29.81,SE,140,0.0,-999.0,27,-99.99,,,0.00,weatherlink.com 1.10,2013-08-21 15:46:00,
2013-08-21 09:01:00,95.7,56.0,29.81,SE,140,0.0,-999.0,26,-99.99,,,0.00,weatherlink.com 1.10,2013-08-21 16:01:00,
2013-08-21 09:16:00,97.0,56.0,29.81,SE,140,0.0,-999.0,25,-99.99,,,0.00,weatherlink.com 1.10,2013-08-21 16:16:00,
2013-08-21 09:31:00,98.1,54.0,29.81,SE,140,0.0,-999.0,23,-99.99,,,0.00,weatherlink.com 1.10,2013-08-21 16:31:00,
2013-08-21 09:46:00,99.0,53.0,29.81,SE,140,0.0,-999.0,21,-99.99,,,0.00,weatherlink.com 1.10,2013-08-21 16:46:00,
2013-08-21 10:01:00,100.2,54.0,29.82,SE,141,4.0,-999.0,21,-99.99,,,0.00,weatherlink.com 1.10,2013-08-21 17:01:00,
2013-08-21 10:16:00,100.6,54.0,29.82,SE,138,5.0,-999.0,21,-99.99,,,0.00,weatherlink.com 1.10,2013-08-21 17:16:00,
2013-08-21 10:31:00,101.2,53.0,29.82,SE,146,0.0,-999.0,20,-99.99,,,0.00,weatherlink.com 1.10,2013-08-21 17:31:00,
2013-08-21 10:46:00,102.7,53.0,29.82,SSE,153,6.0,-999.0,19,-99.99,,,0.00,weatherlink.com 1.10,2013-08-21 17:46:00,
2013-08-21 11:01:00,103.1,52.0,29.82,SSE,147,2.0,-999.0,18,-99.99,,,0.00,weatherlink.com 1.10,2013-08-21 18:01:00,
2013-08-21 11:16:00,104.3,53.0,29.82,NE,46,4.0,-999.0,18,-99.99,,,0.00,weatherlink.com 1.10,2013-08-21 18:16:00,
2013-08-21 11:31:00,104.5,53.0,29.82,ESE,118,8.0,-999.0,18,-99.99,,,0.00,weatherlink.com 1.10,2013-08-21 18:31:00,
2013-08-21 11:46:00,104.1,53.0,29.82,NE,42,4.0,-999.0,18,-99.99,,,0.00,weatherlink.com 1.10,2013-08-21 18:46:00,
2013-08-21 12:01:00,106.1,53.0,29.81,SE,129,7.0,-999.0,17,-99.99,,,0.00,weatherlink.com 1.10,2013-08-21 19:01:00,
2013-08-21 12:16:00,105.2,52.0,29.81,NNE,23,0.0,-999.0,17,-99.99,,,0.00,weatherlink.com 1.10,2013-08-21 19:16:00,
2013-08-21 12:31:00,106.5,52.0,29.81,East,82,0.0,-999.0,16,-99.99,,,0.00,weatherlink.com 1.10,2013-08-21 19:31:00,
2013-08-21 12:46:00,107.4,52.0,29.80,ESE,109,6.0,-999.0,16,-99.99,,,0.00,weatherlink.com 1.10,2013-08-21 19:46:00,
2013-08-21 13:01:00,106.8,52.0,29.80,ESE,114,7.0,-999.0,16,-99.99,,,0.00,weatherlink.com 1.10,2013-08-21 20:01:00,
2013-08-21 13:16:00,107.4,52.0,29.79,ESE,112,5.0,-999.0,16,-99.99,,,0.00,weatherlink.com 1.10,2013-08-21 20:16:00,
2013-08-21 13:31:00,107.7,51.0,29.78,SSW,201,3.0,-999.0,15,-99.99,,,0.00,weatherlink.com 1.10,2013-08-21 20:31:00,
2013-08-21 13:46:00,107.7,51.0,29.77,SSE,161,1.0,-999.0,15,-99.99,,,0.00,weatherlink.com 1.10,2013-08-21 20:46:00,
2013-08-21 14:01:00,108.4,52.0,29.77,SSW,207,0.0,-999.0,15,-99.99,,,0.00,weatherlink.com 1.10,2013-08-21 21:01:00,
2013-08-21 14:16:00,108.3,51.0,29.76,East,81,4.0,-999.0,15,-99.99,,,0.00,weatherlink.com 1.10,2013-08-21 21:16:00,
2013-08-21 14:31:00,107.1,52.0,29.75,NE,34,11.0,-999.0,16,-99.99,,,0.00,weatherlink.com 1.10,2013-08-21 21:31:00,
2013-08-21 14:46:00,107.7,53.0,29.75,ENE,61,6.0,-999.0,16,-99.99,,,0.00,weatherlink.com 1.10,2013-08-21 21:46:00,
2013-08-21 15:01:00,108.1,51.0,29.74,East,101,14.0,-999.0,15,-99.99,,,0.00,weatherlink.com 1.10,2013-08-21 22:01:00,
2013-08-21 15:16:00,106.9,52.0,29.74,ENE,77,3.0,-999.0,16,-99.99,,,0.00,weatherlink.com 1.10,2013-08-21 22:16:00,
2013-08-21 15:31:00,107.6,51.0,29.73,ESE,109,12.0,-999.0,15,-99.99,,,0.00,weatherlink.com 1.10,2013-08-21 22:31:00,
2013-08-21 15:46:00,107.5,51.0,29.73,ESE,121,0.0,-999.0,15,-99.99,,,0.00,weatherlink.com 1.10,2013-08-21 22:46:00,
2013-08-21 16:02:00,108.1,53.0,29.72,SSE,157,0.0,-999.0,16,-99.99,,,0.00,weatherlink.com 1.10,2013-08-21 23:02:00,
2013-08-21 16:17:00,108.2,53.0,29.71,West,263,0.0,-999.0,16,-99.99,,,0.00,weatherlink.com 1.10,2013-08-21 23:17:00,
2013-08-21 16:32:00,107.7,53.0,29.71,SSW,195,0.0,-999.0,16,-99.99,,,0.00,weatherlink.com 1.10,2013-08-21 23:32:00,
2013-08-21 16:47:00,107.5,52.0,29.70,West,275,0.0,-999.0,16,-99.99,,,0.00,weatherlink.com 1.10,2013-08-21 23:47:00,
2013-08-21 17:02:00,107.8,53.0,29.70,SE,137,0.0,-999.0,16,-99.99,,,0.00,weatherlink.com 1.10,2013-08-22 00:02:00,
2013-08-21 17:17:00,106.5,52.0,29.70,SSW,198,0.0,-999.0,16,-99.99,,,0.00,weatherlink.com 1.10,2013-08-22 00:17:00,
2013-08-21 17:32:00,106.4,52.0,29.70,SSW,199,0.0,-999.0,16,-99.99,,,0.00,weatherlink.com 1.10,2013-08-22 00:32:00,
2013-08-21 17:47:00,106.4,52.0,29.70,South,181,0.0,-999.0,16,-99.99,,,0.00,weatherlink.com 1.10,2013-08-22 00:47:00,
2013-08-21 18:02:00,105.3,51.0,29.71,SSW,199,0.0,-999.0,16,-99.99,,,0.00,weatherlink.com 1.10,2013-08-22 01:02:00,
2013-08-21 18:17:00,104.7,52.0,29.71,South,191,0.0,-999.0,17,-99.99,,,0.00,weatherlink.com 1.10,2013-08-22 01:17:00,
2013-08-21 18:32:00,104.5,52.0,29.71,South,191,0.0,-999.0,17,-99.99,,,0.00,weatherlink.com 1.10,2013-08-22 01:32:00,
2013-08-21 18:47:00,104.3,51.0,29.71,South,188,0.0,-999.0,17,-99.99,,,0.00,weatherlink.com 1.10,2013-08-22 01:47:00,
2013-08-21 19:02:00,104.0,51.0,29.71,South,188,0.0,-999.0,17,-99.99,,,0.00,weatherlink.com 1.10,2013-08-22 02:02:00,
2013-08-21 19:17:00,103.6,51.0,29.71,South,187,0.0,-999.0,17,-99.99,,,0.00,weatherlink.com 1.10,2013-08-22 02:17:00,
2013-08-21 19:32:00,103.2,51.0,29.72,South,186,0.0,-999.0,17,-99.99,,,0.00,weatherlink.com 1.10,2013-08-22 02:32:00,
2013-08-21 19:47:00,103.0,50.0,29.72,South,177,0.0,-999.0,17,-99.99,,,0.00,weatherlink.com 1.10,2013-08-22 02:47:00,
2013-08-21 20:02:00,102.9,50.0,29.73,South,182,0.0,-999.0,17,-99.99,,,0.00,weatherlink.com 1.10,2013-08-22 03:02:00,
2013-08-21 20:17:00,102.7,50.0,29.74,South,184,0.0,-999.0,17,-99.99,,,0.00,weatherlink.com 1.10,2013-08-22 03:17:00,
2013-08-21 20:32:00,102.3,50.0,29.75,South,184,0.0,-999.0,17,-99.99,,,0.00,weatherlink.com 1.10,2013-08-22 03:32:00,
2013-08-21 20:47:00,102.0,50.0,29.75,South,177,0.0,-999.0,17,-99.99,,,0.00,weatherlink.com 1.10,2013-08-22 03:47:00,
2013-08-21 21:02:00,101.5,51.0,29.75,South,175,0.0,-999.0,18,-99.99,,,0.00,weatherlink.com 1.10,2013-08-22 04:02:00,
2013-08-21 21:17:00,101.0,50.0,29.76,South,184,0.0,-999.0,18,-99.99,,,0.00,weatherlink.com 1.10,2013-08-22 04:17:00,
2013-08-21 21:32:00,100.2,55.0,29.77,SSW,205,0.0,-999.0,22,-99.99,,,0.00,weatherlink.com 1.10,2013-08-22 04:32:00,
2013-08-21 21:47:00,99.1,55.0,29.77,SSW,201,0.0,-999.0,23,-99.99,,,0.00,weatherlink.com 1.10,2013-08-22 04:47:00,
2013-08-21 22:02:00,98.3,56.0,29.77,SSW,201,0.0,-999.0,24,-99.99,,,0.00,weatherlink.com 1.10,2013-08-22 05:02:00,
2013-08-21 22:17:00,97.3,56.0,29.77,SSW,201,0.0,-999.0,25,-99.99,,,0.00,weatherlink.com 1.10,2013-08-22 05:17:00,
2013-08-21 22:32:00,96.6,56.0,29.78,SSW,201,0.0,-999.0,26,-99.99,,,0.00,weatherlink.com 1.10,2013-08-22 05:32:00,
2013-08-21 22:47:00,96.1,56.0,29.78,SSW,201,0.0,-999.0,26,-99.99,,,0.00,weatherlink.com 1.10,2013-08-22 05:47:00,
2013-08-21 23:02:00,95.5,55.0,29.78,SSW,201,0.0,-999.0,25,-99.99,,,0.00,weatherlink.com 1.10,2013-08-22 06:02:00,
2013-08-21 23:17:00,95.2,57.0,29.78,SSW,201,0.0,-999.0,28,-99.99,,,0.00,weatherlink.com 1.10,2013-08-22 06:17:00,
2013-08-21 23:32:00,95.9,56.0,29.78,SSW,201,0.0,-999.0,26,-99.99,,,0.00,weatherlink.com 1.10,2013-08-22 06:32:00,
2013-08-21 23:47:00,96.1,55.0,29.78,SSW,201,0.0,-999.0,25,-99.99,,,0.00,weatherlink.com 1.10,2013-08-22 06:47:00,